Content
SEND FEEDBACK

Daily
Averages
Monthly
Summary
United States of America

WILMINGTON, NORTH CAROLINA


Home > North America > United States > North Carolina
Elevation: 72 feet     Latitude: 34 16N     Longitude: 077 54W

WEATHER
 
SELECT A DAY
Number of Records: 212,356;   Date Range: 1/1/95 - 10/23/14
 
SHARE

PRINT THIS DATA

[ ← Previous Day ]
WEATHER ALMANAC - JANUARY 21, 2013
[ Next Day → ]
[ °C ]   °F
Weather ElementAverageHighLow
Temperature50.3 °F64.9 °F (1:53 pm)35.1 °F (6:53 am)
Dewpoint37.8 °F44.1 °F (6:53 pm)33.1 °F (6:53 am)
Humidity65 %92 % (6:53 am)38 % (2:53 pm)
Barometer30.00 in30.09 in (9:53 am)29.91 in (3:53 pm)
Wind Speed5.5 mph15 mph (2:53 pm)
Wind Gust21.9 mph (2:53 pm)
Weather ElementAverage
Visibility10 mi
Wind DirectionSE (134.8 °)

Weather ElementTotal
Precipitation---
Heating Degree Days15 (Base 65)
Averaged from 23 records on January 21, 2013
WEATHER CONDITIONS BREAKOUT
WIND DIRECTION BREAKOUT
WEATHER BY HOUR - JANUARY 21, 2013
[ °C ]   °F
Local TimeTemperatureDewpointHumidityBarometerVisibilityWind DirectionWind SpeedGust SpeedPrecipitationEventsConditions
1:53 AM39.9 °F36.0 °F86 %30.07 in10.0 miCalmClear
2:53 AM37.9 °F35.1 °F89 %30.06 in10.0 miCalmClear
3:53 AM37.0 °F34.0 °F89 %30.06 in10.0 miCalmClear
4:53 AM37.0 °F34.0 °F89 %30.06 in10.0 miCalmClear
5:53 AM37.0 °F34.0 °F89 %30.05 in9.0 miCalmClear
6:53 AM35.1 °F33.1 °F92 %30.07 in10.0 miCalmClear
7:53 AM37.0 °F34.0 °F89 %30.07 in10.0 miCalmClear
8:53 AM46.0 °F37.0 °F71 %30.08 in10.0 miCalmClear
9:53 AM52.0 °F35.1 °F53 %30.09 in10.0 miEast (80°)5.8 mphClear
10:53 AM57.9 °F39.0 °F49 %30.07 in10.0 miESE (120°)6.9 mphClear
11:53 AM61.0 °F39.9 °F46 %30.03 in10.0 miSE (130°)4.6 mphClear
12:53 PM63.0 °F41.0 °F45 %29.98 in10.0 miSouth (190°)9.2 mphClear
1:53 PM64.9 °F41.0 °F42 %29.94 in10.0 miSSW (200°)11.5 mphClear
2:53 PM64.0 °F37.9 °F38 %29.92 in10.0 miSW (230°)15.0 mph21.9 mphClear
3:53 PM62.1 °F39.0 °F43 %29.91 in10.0 miSW (220°)13.8 mphClear
4:53 PM60.1 °F42.1 °F51 %29.91 in10.0 miSW (220°)9.2 mphClear
5:53 PM57.0 °F43.0 °F59 %29.92 in10.0 miSSW (210°)8.1 mphClear
6:53 PM54.0 °F44.1 °F69 %29.93 in10.0 miSW (230°)5.8 mphClear
7:53 PM53.1 °F42.1 °F66 %29.94 in10.0 miWSW (250°)6.9 mphClear
8:53 PM52.0 °F39.0 °F61 %29.95 in10.0 miWSW (250°)8.1 mphClear
9:53 PM51.1 °F37.9 °F61 %29.96 in10.0 miWSW (250°)8.1 mphClear
10:53 PM48.9 °F36.0 °F61 %29.96 in10.0 miWSW (250°)5.8 mphClear
11:53 PM48.9 °F34.0 °F56 %29.96 in10.0 miWest (270°)6.9 mphClear
Hourly data recorded from KILM, located miles away from Wilmington, North Carolina







STORIES FROM OUR PARTNERS